Temp
8 9 10 10 10 10 12 13 13 11 10 12 11 11 13 14 15 15 15 15 16 16 17 16 16 16 16 16 16 16 16 16 15 15 15 15 15 15 14 14 14 14 13 13
8 9 10 11 10 10 12 13 12 10 10 12 11 12 13 13 15 15 16 16 16 16 16 16 16 16 16 16 16 16 16 15 15 15 15 15 14 14 14 13 13 13 13 12
9 10 10 10 10 10 10 12 12 12 9 10 11 13 12 15 15 16 15 16 16 15 15 15 15 15 16 16 16 16 15 15 15 14 14 14 14 13 13 13 13 12 12 12
9 9 10 10 10 11 10 10 11 10 11 12 10 11 12 12 13 12 13 14 13 14 14 14 15 14 14 14 15 15 15 15 15 14 14 14 13 13 13 12 13 13 12 11
9 8 9 10 11 11 9 9 10 10 10 9 9 10 11 11 13 11 11 11 12 13 14 14 13 13 13 13 14 14 14 14 14 14 14 14 14 13 13 13 13 13 12 11
8 8 9 10 10 10 8 8 8 7 8 9 9 10 10 12 12 11 10 10 11 12 13 13 13 13 13 13 13 13 13 14 14 13 13 13 13 13 13 13 13 13 13 12
6 7 7 8 8 8 8 9 8 8 9 10 8 9 10 11 11 11 10 10 11 12 12 11 12 12 12 13 13 13 13 13 13 13 13 12 12 12 12 11 12 12 12 12
7 7 7 7 9 9 8 8 8 9 9 7 8 9 10 10 11 12 11 9 9 9 10 10 10 10 11 11 12 13 13 12 12 11 11 11 11 11 11 10 10 10 10 11
6 6 6 6 8 9 7 8 8 7 3 6 7 9 11 9 8 8 8 10 8 7 7 8 8 9 9 10 10 11 11 11 11 11 11 11 11 11 11 10 10 10 10 10
5 6 5 6 8 8 8 9 6 6 7 6 8 9 9 8 8 9 8 8 8 8 8 9 9 10 10 10 10 10 10 10 10 10 10 10 9 9 9 9 9 9 9 9
5 5 5 5 6 7 8 6 8 8 7 8 8 9 9 9 9 9 9 8 8 9 8 8 8 8 8 9 9 9 9 9 9 8 8 8 8 8 8 8 8 8 8 8
6 5 5 5 6 7 7 9 9 8 8 7 8 8 7 8 8 7 7 7 7 7 7 7 7 7 8 8 8 8 8 8 7 7 6 6 6 7 7 7 7 7 7 7
5 4 5 5 6 6 7 8 8 7 7 6 7 7 7 6 6 6 6 6 6 6 6 6 7 7 7 7 7 6 6 5 5 6 6 6 6 6 6 6 6 5 5 5
5 2 4 6 6 6 6 8 8 9 7 7 8 7 7 5 4 5 5 5 5 5 6 6 6 6 6 5 5 5 5 5 5 5 5 5 5 5 5 5 4 4 5 5
4 2 3 3 3 6 8 8 8 8 9 9 9 9 7 5 5 4 5 5 5 5 5 5 5 4 4 4 4 5 5 5 4 5 5 5 4 4 4 5 5 5 5 5
2 3 3 3 3 6 7 7 7 7 6 7 7 6 5 5 5 4 4 5 4 4 4 4 3 3 3 4 4 4 4 5 4 4 4 4 4 4 4 4 4 5 5 5
3 2 0 2 2 5 5 4 5 6 7 7 7 7 4 3 3 4 4 4 3 3 3 3 3 3 3 4 4 4 4 4 3 3 4 4 4 4 4 4 4 4 3 3
1 1 -0 2 2 5 5 3 5 5 4 5 4 4 4 4 4 4 3 3 3 3 3 3 3 3 3 3 3 3 3 3 3 3 3 2 2 2 2 2 1 1 1 1
0 1 -0 2 -1 2 5 4 4 6 4 4 3 3 3 3 3 2 2 3 3 3 2 3 3 3 3 2 2 2 2 2 2 2 1 1 1 1 -0 -0 -1 -1 -1 -1
-1 -1 1 -4 1 1 4 4 5 6 5 4 4 2 2 2 2 1 2 2 2 3 3 2 2 1 1 1 1 1 1 1 0 -0 -1 -1 -1 -1 -2 -2 -2 -3 -3 -3
-5 -5 -1 -3 -0 0 1 3 4 4 5 3 4 3 2 2 3 3 2 2 2 2 1 1 0 -0 0 0 -0 0 -0 -1 -2 -2 -2 -2 -2 -3 -3 -4 -4 -5 -5 -5
-3 -3 -5 -9 -3 3 2 3 4 3 3 4 4 4 4 4 3 2 1 1 0 -0 -0 -0 0 -0 -0 -0 -1 -1 -2 -3 -3 -2 -2 -3 -4 -4 -5 -5 -6 -6 -6 -6
-4 -1 -2 -1 -1 2 2 3 4 4 4 3 4 3 4 3 2 1 1 0 -0 -0 0 -0 0 -0 -2 -2 -2 -3 -3 -3 -3 -3 -5 -5 -5 -6 -6 -6 -7 -7 -7 -7
-2 -1 -3 -1 1 0 2 3 3 4 4 3 3 3 2 2 1 1 0 -0 -0 -1 -0 -0 -1 -2 -2 -3 -4 -4 -4 -4 -5 -5 -6 -7 -7 -7 -7 -8 -8 -8 -8 -9
-2 -2 -5 -4 -0 1 2 3 4 3 3 3 3 3 2 1 1 -0 -0 -0 -1 -1 -1 -2 -2 -3 -3 -4 -4 -4 -5 -5 -6 -7 -7 -8 -8 -8 -9 -8 -9 -9 -10 -12
-2 -4 -2 -2 2 3 4 4 3 3 3 3 3 2 1 1 0 -1 -1 -1 -1 -2 -2 -3 -3 -4 -4 -4 -4 -5 -6 -7 -8 -8 -8 -9 -9 -9 -9 -9 -9 -9 -9 -10
Height
1521 1524 1522 1524 1524 1526 1525 1528 1533 1541 1542 1540 1543 1544 1537 1534 1535 1538 1540 1541 1542 1543 1548 1552 1556 1559 1561 1562 1564 1566 1568 1570 1571 1570 1571 1572 1572 1573 1573 1574 1573 1573 1571 1571
1521 1517 1518 1522 1524 1526 1525 1526 1532 1541 1542 1538 1542 1540 1537 1533 1534 1536 1538 1538 1540 1543 1547 1551 1554 1556 1558 1561 1562 1563 1565 1567 1569 1570 1571 1570 1570 1569 1569 1570 1570 1570 1568 1567
1516 1517 1519 1521 1525 1527 1526 1524 1528 1530 1542 1542 1541 1540 1537 1537 1536 1535 1538 1537 1538 1542 1545 1549 1551 1552 1554 1557 1559 1560 1563 1565 1567 1568 1568 1568 1567 1566 1567 1567 1565 1565 1564 1562
1514 1515 1517 1520 1524 1523 1528 1526 1529 1534 1536 1541 1544 1551 1542 1542 1538 1543 1538 1538 1538 1540 1543 1548 1550 1551 1553 1556 1557 1558 1560 1561 1563 1563 1563 1564 1565 1564 1563 1560 1559 1558 1558 1556
1511 1512 1516 1518 1515 1520 1526 1527 1531 1536 1541 1544 1548 1552 1540 1540 1540 1542 1538 1542 1541 1542 1545 1550 1553 1552 1553 1554 1555 1556 1559 1560 1561 1561 1561 1561 1560 1559 1557 1555 1553 1552 1551 1550
1513 1514 1514 1513 1516 1519 1528 1532 1538 1543 1546 1548 1543 1546 1541 1536 1538 1541 1540 1546 1548 1544 1547 1553 1554 1554 1554 1554 1555 1556 1558 1558 1559 1559 1558 1558 1557 1556 1554 1551 1549 1548 1546 1544
1516 1516 1515 1514 1519 1524 1525 1531 1543 1546 1546 1538 1544 1547 1538 1532 1529 1535 1545 1545 1551 1545 1547 1558 1552 1562 1556 1554 1557 1558 1557 1559 1560 1560 1558 1556 1555 1553 1551 1548 1547 1544 1542 1540
1509 1518 1515 1514 1513 1515 1523 1527 1531 1535 1539 1546 1545 1542 1532 1530 1528 1530 1536 1542 1549 1549 1556 1560 1559 1563 1559 1559 1559 1560 1557 1559 1562 1559 1556 1554 1552 1551 1549 1547 1545 1543 1538 1535
1512 1513 1516 1517 1513 1515 1524 1527 1529 1535 1555 1545 1544 1538 1529 1530 1529 1529 1535 1542 1548 1551 1557 1559 1559 1560 1563 1563 1560 1560 1558 1558 1558 1557 1555 1553 1550 1549 1547 1545 1542 1539 1535 1533
1515 1514 1520 1516 1514 1516 1518 1524 1538 1542 1546 1553 1541 1536 1529 1534 1533 1534 1539 1542 1549 1554 1557 1557 1560 1561 1563 1562 1559 1560 1558 1556 1555 1555 1554 1552 1549 1546 1544 1542 1538 1534 1533 1529
1512 1517 1524 1522 1520 1516 1521 1527 1525 1527 1534 1535 1539 1532 1525 1528 1532 1534 1538 1546 1547 1551 1554 1558 1560 1562 1562 1561 1559 1557 1556 1555 1554 1554 1553 1550 1548 1544 1542 1540 1537 1533 1528 1524
1513 1520 1522 1524 1522 1517 1517 1516 1516 1521 1530 1533 1529 1532 1525 1525 1531 1536 1543 1546 1549 1552 1556 1558 1559 1561 1561 1558 1556 1555 1554 1554 1553 1551 1550 1548 1545 1542 1539 1535 1532 1528 1524 1522
1511 1521 1521 1522 1524 1519 1519 1514 1515 1520 1524 1533 1534 1537 1529 1529 1534 1541 1542 1547 1551 1554 1556 1558 1557 1558 1559 1558 1556 1555 1554 1553 1552 1549 1545 1543 1539 1535 1531 1527 1527 1525 1522 1516
1510 1522 1518 1510 1512 1512 1518 1515 1516 1515 1530 1531 1528 1537 1537 1538 1539 1545 1547 1547 1551 1555 1556 1557 1556 1557 1559 1558 1556 1554 1552 1550 1548 1545 1540 1536 1532 1528 1525 1524 1523 1519 1513 1508
1511 1521 1518 1519 1517 1510 1507 1510 1516 1518 1520 1523 1529 1529 1533 1540 1542 1545 1547 1548 1550 1553 1556 1558 1558 1558 1558 1556 1553 1550 1547 1544 1542 1538 1535 1533 1530 1528 1526 1522 1517 1512 1509 1504
1513 1516 1519 1521 1517 1511 1510 1512 1513 1519 1525 1528 1528 1535 1536 1541 1543 1546 1547 1548 1552 1554 1556 1557 1556 1556 1554 1551 1547 1544 1543 1541 1539 1536 1531 1529 1527 1525 1520 1513 1508 1503 1501 1497
1514 1519 1527 1530 1523 1515 1520 1514 1515 1516 1518 1523 1528 1530 1537 1541 1543 1547 1549 1551 1554 1555 1555 1554 1554 1553 1550 1545 1543 1540 1538 1538 1534 1531 1530 1527 1523 1519 1511 1507 1504 1500 1494 1489
1515 1521 1527 1528 1527 1519 1511 1512 1510 1515 1521 1521 1522 1526 1531 1537 1542 1546 1548 1549 1551 1551 1551 1550 1550 1548 1544 1541 1539 1538 1537 1536 1533 1529 1527 1525 1519 1512 1506 1504 1499 1494 1488 1481
1515 1519 1531 1526 1542 1527 1514 1514 1515 1512 1524 1522 1523 1528 1531 1536 1541 1545 1546 1546 1547 1548 1547 1545 1543 1541 1540 1540 1539 1537 1536 1535 1532 1529 1525 1519 1513 1507 1503 1499 1494 1488 1482 1475
1521 1521 1525 1548 1535 1535 1512 1510 1510 1509 1520 1517 1520 1524 1529 1536 1541 1540 1543 1545 1545 1545 1544 1543 1543 1543 1542 1541 1537 1537 1535 1531 1528 1523 1518 1513 1509 1504 1499 1493 1488 1483 1478 1468
1536 1537 1533 1543 1532 1522 1513 1510 1511 1523 1516 1513 1519 1523 1529 1534 1536 1538 1541 1542 1542 1543 1542 1542 1542 1542 1541 1538 1536 1533 1529 1525 1522 1517 1512 1510 1506 1499 1496 1488 1484 1479 1470 1462
1530 1536 1544 1560 1545 1518 1510 1511 1513 1512 1512 1515 1522 1527 1531 1534 1536 1538 1539 1541 1542 1542 1542 1540 1540 1538 1537 1535 1532 1528 1524 1521 1517 1513 1509 1506 1502 1496 1491 1484 1479 1474 1466 1456
1535 1520 1524 1525 1521 1511 1511 1512 1510 1510 1511 1518 1521 1526 1530 1532 1534 1536 1536 1537 1537 1537 1538 1539 1537 1536 1535 1530 1526 1523 1520 1518 1514 1509 1505 1501 1497 1493 1487 1480 1474 1468 1460 1452
1517 1515 1519 1518 1509 1509 1511 1512 1512 1515 1517 1521 1524 1526 1528 1530 1531 1532 1534 1534 1535 1536 1536 1536 1537 1534 1530 1526 1521 1518 1515 1511 1508 1505 1502 1497 1493 1488 1484 1478 1471 1463 1456 1449
1511 1511 1514 1515 1507 1507 1507 1510 1513 1514 1517 1520 1522 1524 1525 1527 1528 1529 1531 1532 1533 1534 1533 1534 1531 1527 1524 1521 1518 1514 1510 1507 1505 1502 1497 1493 1488 1483 1478 1473 1465 1459 1454 1448
1498 1499 1504 1506 1494 1497 1498 1504 1509 1511 1514 1517 1519 1521 1524 1525 1525 1527 1529 1531 1531 1531 1529 1527 1524 1520 1519 1517 1514 1511 1508 1504 1500 1497 1493 1488 1483 1478 1472 1464 1458 1457 1451 1444
Wind_Speed
5 4 7 8 6 2 10 9 12 3 1 2 2 4 5 4 9 14 21 25 27 28 24 23 22 20 19 19 18 17 15 14 14 15 16 17 17 18 19 20 21 23 25 28
3 4 5 4 5 3 8 13 8 3 3 2 3 4 5 4 4 18 22 24 27 24 23 23 23 24 24 25 24 23 21 19 19 19 20 21 23 23 24 24 25 26 28 30
5 5 9 7 4 4 5 12 12 7 3 3 2 4 4 2 2 4 9 12 21 21 14 18 23 25 25 25 24 23 24 24 23 24 25 27 28 27 27 27 26 26 28 28
3 7 9 7 11 8 3 3 5 7 9 6 2 4 4 1 4 6 9 11 10 11 10 7 10 13 13 15 16 15 17 17 17 18 19 19 20 23 25 26 27 27 26 25
5 10 10 10 9 10 2 5 7 3 4 2 2 2 3 0 3 5 14 14 18 18 13 9 8 9 8 8 6 6 7 9 11 13 14 16 20 21 22 22 22 22 23 24
2 1 3 2 9 8 9 8 8 5 3 4 5 8 3 7 5 4 15 15 16 20 17 14 14 12 12 11 8 6 4 1 3 5 7 8 10 11 13 14 16 18 19 20
2 1 1 1 8 13 6 8 2 2 3 3 5 7 2 5 6 9 13 20 15 20 19 18 21 16 18 17 15 12 11 9 8 6 5 6 9 11 13 15 16 17 18 19
5 4 4 1 2 6 11 5 4 6 5 3 2 5 3 3 10 25 19 13 2 10 12 7 8 14 18 15 13 5 4 2 6 8 10 11 11 13 14 16 17 17 18 20
3 2 3 2 1 10 4 4 2 4 3 3 3 2 2 4 7 18 18 17 13 18 15 16 12 11 9 8 10 9 8 8 9 11 11 13 14 15 17 18 19 21 22 22
2 3 2 4 3 2 3 5 3 1 4 2 3 4 3 6 8 13 18 23 29 25 24 20 15 12 9 8 9 7 8 10 11 10 11 12 14 15 17 19 21 22 23 24
4 2 1 4 1 4 4 3 4 3 2 4 4 4 2 6 11 17 25 24 27 25 23 20 16 12 10 9 7 8 8 8 9 10 12 13 14 15 16 18 19 22 24 26
5 3 2 2 3 2 2 4 4 3 3 1 1 2 4 7 11 20 23 27 26 24 21 17 14 10 8 9 8 9 10 11 12 13 14 14 15 16 18 19 22 24 26 26
5 3 2 3 3 2 3 3 3 4 3 1 3 2 6 16 18 20 27 28 23 19 16 13 9 9 9 9 10 11 12 14 15 16 17 18 20 22 24 25 25 26 27 28
2 3 4 4 3 5 5 4 4 3 3 1 1 5 1 6 11 18 24 24 20 15 12 10 9 8 8 9 11 14 15 17 19 21 23 24 25 26 26 27 28 29 31 34
1 3 2 2 3 1 2 5 5 3 3 3 6 13 8 6 11 18 23 19 16 13 10 7 6 7 9 12 14 16 19 20 21 22 23 25 26 27 28 30 33 35 37 39
2 2 2 5 7 2 1 6 13 7 5 4 9 3 2 15 19 20 17 15 13 11 7 4 5 8 11 15 17 19 19 20 21 21 23 26 29 31 34 37 40 43 46 48
3 4 2 2 4 4 4 6 7 4 4 8 6 5 11 9 15 18 15 13 11 8 4 3 7 11 14 16 17 19 20 20 21 24 26 30 34 37 39 42 44 46 48 50
4 3 2 1 3 3 3 4 4 8 3 2 6 14 16 18 19 16 11 11 9 4 1 6 10 13 15 16 16 17 18 21 24 27 30 33 37 40 42 44 44 45 46 46
5 3 3 3 2 3 2 3 5 6 4 2 10 11 20 26 19 9 8 7 4 1 6 11 14 16 15 15 15 17 20 23 26 29 32 35 38 41 41 42 43 43 46 47
7 6 3 1 4 6 2 1 1 1 2 14 12 20 25 23 5 4 11 7 3 5 8 10 11 11 12 13 16 19 22 25 28 31 33 34 36 37 40 41 43 44 44 46
3 3 3 0 1 5 5 5 1 6 5 20 23 24 24 5 3 14 10 6 5 7 7 6 6 10 13 16 19 23 25 27 29 30 31 33 34 36 38 39 39 41 42 43
4 4 3 3 2 4 1 2 5 3 22 25 23 21 20 12 12 10 8 7 6 5 4 4 8 13 17 20 22 24 26 26 28 30 32 32 33 34 35 36 37 38 40 42
2 4 3 6 4 2 1 3 1 21 28 22 20 16 12 12 10 8 8 6 5 4 5 7 11 15 18 21 23 23 25 27 28 30 30 31 30 30 31 34 36 37 38 40
3 6 2 2 2 9 7 3 12 22 21 18 14 11 9 7 8 8 8 6 5 5 8 11 13 15 18 20 21 23 25 27 28 29 29 28 29 29 30 31 34 37 38 39
5 10 5 4 6 2 9 13 18 21 16 14 11 8 7 8 8 8 7 5 5 9 11 13 15 17 18 18 20 23 26 27 26 26 26 27 28 30 32 32 35 37 37 34
12 7 5 5 12 14 9 22 21 21 19 14 11 10 10 9 8 7 7 6 8 10 12 14 15 17 18 19 21 23 24 24 24 25 25 27 30 31 33 36 38 35 37 38
Wind_Direction
142 180 195 188 199 337 164 189 201 134 307 148 114 260 286 332 210 208 210 209 211 214 217 217 219 220 224 228 232 239 245 251 250 252 257 267 280 290 290 294 297 294 293 291
114 239 180 116 149 194 215 186 174 96 334 129 16 289 269 295 213 217 216 214 217 220 221 221 223 226 231 234 235 237 242 249 254 260 268 270 277 282 285 290 295 297 294 295
178 146 167 164 167 168 199 206 179 162 142 94 72 319 2 323 215 192 215 233 227 224 221 234 231 229 230 229 233 237 243 249 252 256 260 264 268 273 283 290 292 290 288 289
237 162 171 190 196 178 182 164 123 117 162 207 75 253 220 248 353 36 110 102 115 163 174 203 221 224 222 223 234 241 243 243 244 247 250 258 269 276 282 288 293 293 294 294
184 171 178 193 198 176 132 170 145 122 121 105 179 180 247 16 154 77 70 91 105 106 104 101 108 117 136 150 167 183 205 225 239 254 265 273 277 284 288 293 297 299 298 299
87 305 183 160 128 133 129 90 68 57 77 233 174 183 213 208 170 108 88 82 99 98 91 94 94 91 94 95 106 115 121 193 268 285 287 292 302 307 309 312 311 310 312 311
159 12 345 155 107 138 112 140 109 147 189 212 180 185 243 241 242 153 141 111 79 85 84 82 86 89 95 91 86 80 64 51 43 32 13 356 342 338 334 332 328 324 320 322
160 186 180 279 169 157 147 143 162 177 184 142 144 211 243 261 218 212 207 161 205 104 126 155 88 71 66 66 61 62 95 73 7 8 6 359 351 346 343 339 336 331 328 324
138 115 337 219 157 148 146 167 79 99 48 87 190 227 354 52 78 121 146 147 141 121 125 119 104 100 112 93 71 43 25 5 350 346 341 336 334 328 325 324 324 323 325 321
183 110 356 325 103 328 183 144 79 5 139 161 231 222 192 164 140 123 128 138 145 138 125 121 120 104 94 76 58 44 35 26 17 4 357 352 344 339 336 333 328 326 322 319
134 51 131 319 321 163 151 136 208 129 137 159 134 252 215 159 165 149 144 144 137 129 123 119 114 109 93 82 67 47 28 13 3 355 350 343 339 337 334 330 330 328 329 327
178 100 175 180 249 234 326 178 174 135 219 343 52 269 332 147 131 127 126 137 130 125 123 118 113 104 80 54 36 19 7 358 359 359 354 350 346 342 337 337 334 330 326 323
158 174 147 72 318 66 218 213 109 109 69 167 109 272 31 92 100 121 127 131 126 124 119 109 97 70 50 36 22 14 10 8 3 358 355 351 350 349 348 346 340 335 329 328
119 120 184 196 200 143 177 178 148 99 98 175 109 139 178 116 122 128 130 128 126 120 106 90 73 55 37 23 15 8 2 359 356 354 352 352 352 351 348 343 338 335 335 331
76 127 104 50 322 307 159 167 135 131 171 158 169 169 177 162 146 140 134 130 126 115 104 84 59 33 15 10 2 357 353 352 353 352 347 346 345 341 336 332 331 329 326 324
23 108 71 11 6 164 175 195 177 160 104 96 124 119 145 141 141 139 138 136 133 127 116 82 26 7 360 356 352 352 348 345 346 344 343 338 333 330 328 328 328 326 322 319
110 128 94 256 346 37 338 214 170 139 148 150 153 183 150 125 131 146 149 149 144 142 127 34 355 349 347 348 347 342 343 340 339 338 333 328 326 326 329 326 323 319 317 316
117 98 50 133 31 185 270 313 193 125 73 114 95 146 153 145 146 146 154 157 161 162 348 339 338 338 339 340 339 339 335 333 333 331 328 325 327 327 325 323 322 321 320 320
46 112 92 159 188 289 10 193 150 143 219 226 134 124 132 143 138 145 160 171 175 290 329 335 334 332 332 334 334 334 330 326 326 326 327 329 328 327 327 326 326 325 322 323
98 61 115 67 138 191 204 157 211 178 272 190 160 151 152 154 163 200 182 191 235 306 315 319 322 323 326 324 327 324 323 327 329 330 333 333 330 328 327 327 327 326 325 323
28 17 111 88 224 290 242 254 305 118 233 159 157 161 161 158 192 167 184 218 263 283 293 299 309 313 318 323 323 324 328 332 334 336 333 330 329 328 326 327 328 328 330 329
170 134 169 91 62 268 287 101 168 181 142 149 147 154 166 168 152 170 195 215 233 251 262 295 311 317 318 319 324 328 332 335 335 331 329 328 328 329 329 331 332 334 334 334
270 185 183 189 214 258 198 292 239 157 150 153 150 149 153 165 187 201 210 229 247 254 286 301 315 315 315 324 327 331 332 329 328 328 329 329 333 334 334 335 337 338 340 340
249 190 175 70 248 238 223 128 157 162 153 154 159 163 176 193 200 208 226 217 222 262 294 307 303 313 322 325 329 329 328 328 329 329 331 334 335 337 338 340 341 342 343 341
212 151 175 267 258 231 209 186 169 171 171 172 176 190 202 210 213 216 207 214 263 280 296 306 317 323 326 326 325 324 325 326 328 331 334 336 338 339 339 340 341 342 343 341
192 180 167 217 213 194 200 198 192 194 196 200 209 210 216 217 206 198 209 242 276 296 305 314 321 323 321 322 323 323 323 326 330 333 336 338 338 339 339 340 340 342 341 339